Location: Middleville
(41.0560°N, 74.8630°W)
Time: 12:00:07
(UTC-05:00)

Tiangong 2 - Visible Passes

Search period start: 21 February 2018 00:00
Search period end: 03 March 2018 00:00
Orbit: 384 x 388 km, 42.8° (Epoch: 21 February)

Date Brightness Start Highest point End Pass type
(mag) Time Alt. Az. Time Alt. Az. Time Alt. Az.
21 Feb 2.4 19:01:26 10° W 19:04:22 34° SSW 19:05:47 22° SSE visible
22 Feb 3.9 19:40:29 10° WSW 19:41:47 12° SW 19:42:17 12° SSW visible
23 Feb 3.4 18:40:34 10° W 18:43:01 20° SSW 18:45:28 10° SSE visible
25 Feb 4.2 18:20:21 10° WSW 18:21:33 12° SW 18:22:45 10° SSW visible
